Weather History for Ironwood, MI

Change the Weather History Date:

Tuesday, December 4, 2012

  Actual Average Record
Temperature  
Mean Temperature 31 °F -  
Max Temperature 41 °F 30 °F 46 °F (2001)
Min Temperature 21 °F 18 °F 5 °F (2002)
Degree Days  
Heating Degree Days 34    
Moisture  
Dew Point 14 °F    
Average Humidity 58    
Maximum Humidity 68    
Minimum Humidity 50    
Precipitation  
Precipitation 0.00 in - - ()
Sea Level Pressure  
Sea Level Pressure 30.00 in    
Wind  
Wind Speed 18 mph (WNW)    
Max Wind Speed 26 mph    
Max Gust Speed 34 mph    
Visibility 10 miles    
Events      
Averages and records for this station are not official NWS values.
T = Trace of Precipitation, MM = Missing Value Source: NWS Daily Summary

Daily Weather History Graph

Daily Weather History Graph

Search for Another Location

Airport:

Trip Planner

Search our weather history database for the weather conditions in past years. The results will help you decide how hot, cold, wet, or windy it might be!

Date:

Astronomy

Dec. 04, 2012 Rise Set
Actual Time 7:27 AM CST 4:13 PM CST
Civil Twilight 6:53 AM CST 4:48 PM CST
Nautical Twilight 6:15 AM CST 5:26 PM CST
Astronomical Twilight 5:38 AM CST 6:02 PM CST
Moon 10:15 PM CST (12/4) 11:09 AM CST (12/4)
Length of Visible Light 9h 55m
Length of Day
8h 46m
Waning Gibbous, 69% of the Moon is Illuminated
Dec 4
Waning Gibbous
Dec 6
Last Quarter
Dec 13
New
Dec 19
First Quarter
Dec 28
Full

Hourly Weather History & Observations

Time (CST) Temp. Windchill Dew Point Humidity Pressure Visibility Wind Dir Wind Speed Gust Speed Precip Events Conditions
12:15 AM 41.0 °F 31.1 °F 26.6 °F 57% 29.67 in 10.0 mi WSW 23.0 mph 29.9 mph N/A   Clear
12:35 AM 41.0 °F 31.4 °F 26.6 °F 57% 29.68 in 10.0 mi WSW 21.9 mph 33.4 mph N/A   Clear
12:55 AM 41.0 °F 31.4 °F 26.6 °F 57% 29.69 in 10.0 mi WSW 21.9 mph 34.5 mph N/A   Clear
1:15 AM 39.2 °F 28.0 °F 26.6 °F 61% 29.69 in 10.0 mi WSW 26.5 mph 33.4 mph N/A   Clear
1:35 AM 39.2 °F 28.7 °F 26.6 °F 61% 29.70 in 10.0 mi WSW 23.0 mph 28.8 mph N/A   Clear
1:55 AM 39.2 °F 29.3 °F 26.6 °F 61% 29.71 in 10.0 mi West 20.7 mph 27.6 mph N/A   Clear
2:15 AM 39.2 °F 29.3 °F 26.6 °F 61% 29.73 in 10.0 mi West 20.7 mph 29.9 mph N/A   Clear
2:55 AM 37.4 °F 26.9 °F 24.8 °F 60% 29.75 in 10.0 mi West 20.7 mph 28.8 mph N/A   Clear
3:15 AM 35.6 °F 25.9 °F 24.8 °F 65% 29.75 in 10.0 mi West 16.1 mph - N/A   Clear
3:35 AM 35.6 °F 24.8 °F 24.8 °F 65% 29.76 in 10.0 mi West 19.6 mph 26.5 mph N/A   Clear
3:55 AM 35.6 °F 25.9 °F 23.0 °F 60% 29.78 in 10.0 mi West 16.1 mph 25.3 mph N/A   Clear
4:15 AM 33.8 °F 23.2 °F 21.2 °F 60% 29.79 in 10.0 mi West 17.3 mph 25.3 mph N/A   Clear
4:35 AM 33.8 °F 21.9 °F 21.2 °F 60% 29.79 in 10.0 mi West 21.9 mph 25.3 mph N/A   Clear
4:55 AM 33.8 °F 23.9 °F 19.4 °F 56% 29.80 in 10.0 mi West 15.0 mph 21.9 mph N/A   Clear
5:15 AM 32.0 °F 21.2 °F 19.4 °F 60% 29.80 in 10.0 mi West 16.1 mph 20.7 mph N/A   Clear
5:35 AM 32.0 °F 19.8 °F 17.6 °F 55% 29.80 in 10.0 mi West 20.7 mph 31.1 mph N/A   Clear
5:55 AM 30.2 °F 18.5 °F 17.6 °F 60% 29.82 in 10.0 mi West 17.3 mph 28.8 mph N/A   Clear
6:15 AM 30.2 °F 18.1 °F 17.6 °F 60% 29.83 in 10.0 mi West 18.4 mph 29.9 mph N/A   Clear
6:35 AM 28.4 °F 16.6 °F 15.8 °F 59% 29.85 in 10.0 mi West 16.1 mph - N/A   Clear
6:55 AM 28.4 °F 16.6 °F 15.8 °F 59% 29.85 in 10.0 mi West 16.1 mph 21.9 mph N/A   Clear
7:15 AM 28.4 °F 16.6 °F 15.8 °F 59% 29.87 in 10.0 mi West 16.1 mph - N/A   Clear
7:35 AM 28.4 °F 15.8 °F 15.8 °F 59% 29.88 in 10.0 mi West 18.4 mph 24.2 mph N/A   Clear
7:55 AM 26.6 °F 13.4 °F 14.0 °F 59% 29.89 in 10.0 mi West 18.4 mph 25.3 mph N/A   Clear
8:15 AM 26.6 °F 14.7 °F 14.0 °F 59% 29.91 in 10.0 mi WNW 15.0 mph 21.9 mph N/A   Clear
8:35 AM 26.6 °F 15.2 °F 14.0 °F 59% 29.91 in 10.0 mi West 13.8 mph 19.6 mph N/A   Mostly Cloudy
8:55 AM 26.6 °F 14.3 °F 12.2 °F 55% 29.92 in 10.0 mi West 16.1 mph 28.8 mph N/A   Mostly Cloudy
9:15 AM 26.6 °F 15.2 °F 12.2 °F 55% 29.94 in 10.0 mi WNW 13.8 mph 24.2 mph N/A   Partly Cloudy
9:35 AM 24.8 °F 11.5 °F 10.4 °F 54% 29.95 in 10.0 mi West 17.3 mph 27.6 mph N/A   Scattered Clouds
9:55 AM 24.8 °F 12.4 °F 10.4 °F 54% 29.96 in 10.0 mi West 15.0 mph 27.6 mph N/A   Partly Cloudy
10:15 AM 24.8 °F 10.0 °F 12.2 °F 59% 29.97 in 10.0 mi West 21.9 mph 27.6 mph N/A   Partly Cloudy
10:35 AM 24.8 °F 10.3 °F 10.4 °F 54% 29.97 in 10.0 mi West 20.7 mph 24.2 mph N/A   Partly Cloudy
10:55 AM 24.8 °F 12.9 °F 10.4 °F 54% 29.98 in 10.0 mi WNW 13.8 mph - N/A   Scattered Clouds
11:15 AM 24.8 °F 10.7 °F 10.4 °F 54% 29.98 in 10.0 mi West 19.6 mph 24.2 mph N/A   Scattered Clouds
11:35 AM 24.8 °F 11.5 °F 10.4 °F 54% 29.98 in 10.0 mi West 17.3 mph 25.3 mph N/A   Partly Cloudy
12:15 PM 24.8 °F 11.1 °F 8.6 °F 50% 30.00 in 10.0 mi WNW 18.4 mph 27.6 mph N/A   Clear
12:35 PM 24.8 °F 11.1 °F 8.6 °F 50% 30.01 in 10.0 mi West 18.4 mph 24.2 mph N/A   Clear
12:55 PM 24.8 °F 11.5 °F 8.6 °F 50% 30.02 in 10.0 mi West 17.3 mph 24.2 mph N/A   Scattered Clouds
1:15 PM 24.8 °F 11.1 °F 8.6 °F 50% 30.03 in 10.0 mi WNW 18.4 mph 25.3 mph N/A   Scattered Clouds
1:35 PM 24.8 °F 10.7 °F 8.6 °F 50% 30.04 in 10.0 mi West 19.6 mph 24.2 mph N/A   Scattered Clouds
1:55 PM 24.8 °F 11.9 °F 10.4 °F 54% 30.05 in 10.0 mi West 16.1 mph 23.0 mph N/A   Overcast
2:15 PM 24.8 °F 10.7 °F 10.4 °F 54% 30.05 in 10.0 mi West 19.6 mph 27.6 mph N/A   Overcast
2:35 PM 24.8 °F 11.9 °F 8.6 °F 50% 30.07 in 10.0 mi West 16.1 mph 20.7 mph N/A   Overcast
2:55 PM 24.8 °F 10.3 °F 8.6 °F 50% 30.08 in 10.0 mi West 20.7 mph 27.6 mph N/A   Overcast
3:15 PM 24.8 °F 10.7 °F 10.4 °F 54% 30.09 in 10.0 mi WNW 19.6 mph 24.2 mph N/A   Overcast
3:35 PM 23.0 °F 8.7 °F 10.4 °F 59% 30.11 in 10.0 mi WNW 18.4 mph 26.5 mph N/A   Overcast
3:55 PM 23.0 °F 9.2 °F 10.4 °F 59% 30.13 in 10.0 mi WNW 17.3 mph 27.6 mph N/A   Overcast
4:15 PM 23.0 °F 11.1 °F 10.4 °F 59% 30.14 in 10.0 mi WNW 12.7 mph 19.6 mph N/A   Overcast
4:35 PM 23.0 °F 9.2 °F 10.4 °F 59% 30.14 in 10.0 mi NW 17.3 mph 24.2 mph N/A   Overcast
4:55 PM 23.0 °F 9.6 °F 10.4 °F 59% 30.15 in 10.0 mi NW 16.1 mph 21.9 mph N/A   Overcast
5:15 PM 23.0 °F 12.4 °F 10.4 °F 59% 30.16 in 10.0 mi NW 10.4 mph 18.4 mph N/A   Overcast
5:35 PM 23.0 °F 10.1 °F 10.4 °F 59% 30.18 in 10.0 mi NW 15.0 mph 20.7 mph N/A   Overcast
5:55 PM 21.2 °F 7.3 °F 10.4 °F 63% 30.19 in 10.0 mi NW 16.1 mph 23.0 mph N/A   Overcast
6:15 PM 21.2 °F 7.8 °F 10.4 °F 63% 30.20 in 10.0 mi WNW 15.0 mph 23.0 mph N/A   Overcast
6:35 PM 21.2 °F 7.3 °F 10.4 °F 63% 30.21 in 10.0 mi NW 16.1 mph 20.7 mph N/A   Overcast
6:55 PM 21.2 °F 7.3 °F 10.4 °F 63% 30.21 in 10.0 mi WNW 16.1 mph 21.9 mph N/A   Overcast
7:15 PM 21.2 °F 7.8 °F 10.4 °F 63% 30.21 in 10.0 mi NW 15.0 mph 21.9 mph N/A   Overcast
7:35 PM 21.2 °F 9.5 °F 8.6 °F 58% 30.21 in 10.0 mi NW 11.5 mph 18.4 mph N/A   Overcast
7:55 PM 21.2 °F 10.1 °F 10.4 °F 63% 30.23 in 10.0 mi NW 10.4 mph 18.4 mph N/A   Overcast
8:15 PM 21.2 °F 8.3 °F 10.4 °F 63% 30.23 in 10.0 mi WNW 13.8 mph 18.4 mph N/A   Overcast
8:35 PM 21.2 °F 10.1 °F 10.4 °F 63% 30.24 in 10.0 mi WNW 10.4 mph 18.4 mph N/A   Overcast
8:55 PM 21.2 °F 10.1 °F 10.4 °F 63% 30.24 in 10.0 mi WNW 10.4 mph - N/A   Overcast
9:15 PM 21.2 °F 10.9 °F 10.4 °F 63% 30.25 in 10.0 mi WNW 9.2 mph - N/A   Overcast
9:35 PM 23.0 °F 13.1 °F 12.2 °F 63% 30.25 in 10.0 mi WNW 9.2 mph - N/A   Overcast
9:55 PM 23.0 °F 14.7 °F 14.0 °F 68% 30.25 in 10.0 mi NW 6.9 mph 16.1 mph N/A   Overcast
10:15 PM 23.0 °F 11.7 °F 12.2 °F 63% 30.25 in 10.0 mi NW 11.5 mph - N/A   Overcast
10:35 PM 24.8 °F 14.0 °F 12.2 °F 59% 30.25 in 10.0 mi NW 11.5 mph - N/A   Overcast
10:55 PM 24.8 °F 17.9 °F 12.2 °F 59% 30.26 in 10.0 mi NNW 5.8 mph - N/A   Overcast
11:15 PM 24.8 °F 16.1 °F 12.2 °F 59% 30.27 in 10.0 mi NNW 8.1 mph - N/A   Overcast
11:35 PM 24.8 °F 16.1 °F 10.4 °F 54% 30.28 in 10.0 mi NNW 8.1 mph - N/A   Overcast
11:55 PM 24.8 °F 17.9 °F 10.4 °F 54% 30.28 in 10.0 mi WNW 5.8 mph - N/A   Overcast